Year,Month,Day,Hour,Minute,Value (Times are PST for temperature in C)
2012,08,03,00,00,14.20
2012,08,03,00,01,14.20
2012,08,03,00,02,14.10
2012,08,03,00,03,14.10
2012,08,03,00,04,14.10
2012,08,03,00,05,14.10
2012,08,03,00,06,14.00
2012,08,03,00,07,14.00
2012,08,03,00,08,14.00
2012,08,03,00,09,14.00
2012,08,03,00,10,13.90
2012,08,03,00,11,13.90
2012,08,03,00,12,13.90
2012,08,03,00,13,13.80
2012,08,03,00,14,13.80
2012,08,03,00,15,13.80
2012,08,03,00,16,13.80
2012,08,03,00,17,13.70
2012,08,03,00,18,13.70
2012,08,03,00,19,13.70
2012,08,03,00,20,13.70
2012,08,03,00,21,13.70
2012,08,03,00,22,13.70
2012,08,03,00,23,13.70
2012,08,03,00,24,13.70
2012,08,03,00,25,13.70
2012,08,03,00,26,13.70
2012,08,03,00,27,13.70
2012,08,03,00,28,13.70
2012,08,03,00,29,13.60
2012,08,03,00,30,13.60
2012,08,03,00,31,13.60
2012,08,03,00,32,13.60
2012,08,03,00,33,13.50
2012,08,03,00,34,13.50
2012,08,03,00,35,13.50
2012,08,03,00,36,13.50
2012,08,03,00,37,13.50
2012,08,03,00,38,13.40
2012,08,03,00,39,13.40
2012,08,03,00,40,13.40
2012,08,03,00,41,13.30
2012,08,03,00,42,13.30
2012,08,03,00,43,13.30
2012,08,03,00,44,13.30
2012,08,03,00,45,13.30
2012,08,03,00,46,13.30
2012,08,03,00,47,13.30
2012,08,03,00,48,13.30
2012,08,03,00,49,13.30
2012,08,03,00,50,13.30
2012,08,03,00,51,13.30
2012,08,03,00,52,13.30
2012,08,03,00,53,13.30
2012,08,03,00,54,13.30
2012,08,03,00,55,13.30
2012,08,03,00,56,13.30
2012,08,03,00,57,13.30
2012,08,03,00,58,13.30
2012,08,03,00,59,13.30
2012,08,03,01,00,13.30
2012,08,03,01,01,13.30
2012,08,03,01,02,13.30
2012,08,03,01,03,13.30
2012,08,03,01,04,13.30
2012,08,03,01,05,13.30
2012,08,03,01,06,13.30
2012,08,03,01,07,13.30
2012,08,03,01,08,13.30
2012,08,03,01,09,13.30
2012,08,03,01,10,13.30
2012,08,03,01,11,13.30
2012,08,03,01,12,13.30
2012,08,03,01,13,13.30
2012,08,03,01,14,13.30
2012,08,03,01,15,13.30
2012,08,03,01,16,13.30
2012,08,03,01,17,13.30
2012,08,03,01,18,13.30
2012,08,03,01,19,13.30
2012,08,03,01,20,13.30
2012,08,03,01,21,13.30
2012,08,03,01,22,13.30
2012,08,03,01,23,13.30
2012,08,03,01,24,13.30
2012,08,03,01,25,13.20
2012,08,03,01,26,13.20
2012,08,03,01,27,13.20
2012,08,03,01,28,13.10
2012,08,03,01,29,13.10
2012,08,03,01,30,13.10
2012,08,03,01,31,13.10
2012,08,03,01,32,13.10
2012,08,03,01,33,13.00
2012,08,03,01,34,13.00
2012,08,03,01,35,13.00
2012,08,03,01,36,13.00
2012,08,03,01,37,13.00
2012,08,03,01,38,13.00
2012,08,03,01,39,13.00
2012,08,03,01,40,13.00
2012,08,03,01,41,13.00
2012,08,03,01,42,13.00
2012,08,03,01,43,12.90
2012,08,03,01,44,12.90
2012,08,03,01,45,12.90
2012,08,03,01,46,12.80
2012,08,03,01,47,12.80
2012,08,03,01,48,12.80
2012,08,03,01,49,12.80
2012,08,03,01,50,12.80
2012,08,03,01,51,12.80
2012,08,03,01,52,12.80
2012,08,03,01,53,12.80
2012,08,03,01,54,12.80
2012,08,03,01,55,12.80
2012,08,03,01,56,12.80
2012,08,03,01,57,12.80
2012,08,03,01,58,12.70
2012,08,03,01,59,12.70
2012,08,03,02,00,12.70
2012,08,03,02,01,12.70
2012,08,03,02,02,12.60
2012,08,03,02,03,12.60
2012,08,03,02,04,12.60
2012,08,03,02,05,12.50
2012,08,03,02,06,12.50
2012,08,03,02,07,12.50
2012,08,03,02,08,12.40
2012,08,03,02,09,12.40
2012,08,03,02,10,12.30
2012,08,03,02,11,12.30
2012,08,03,02,12,12.30
2012,08,03,02,13,12.30
2012,08,03,02,14,12.20
2012,08,03,02,15,12.20
2012,08,03,02,16,12.20
2012,08,03,02,17,12.20
2012,08,03,02,18,12.10
2012,08,03,02,19,12.10
2012,08,03,02,20,12.10
2012,08,03,02,21,12.10
2012,08,03,02,22,12.00
2012,08,03,02,23,12.00
2012,08,03,02,24,12.00
2012,08,03,02,25,12.00
2012,08,03,02,26,11.90
2012,08,03,02,27,11.90
2012,08,03,02,28,11.90
2012,08,03,02,29,11.80
2012,08,03,02,30,11.80
2012,08,03,02,31,11.80
2012,08,03,02,32,11.80
2012,08,03,02,33,11.90
2012,08,03,02,34,11.90
2012,08,03,02,35,11.90
2012,08,03,02,36,11.90
2012,08,03,02,37,11.90
2012,08,03,02,38,11.90
2012,08,03,02,39,11.90
2012,08,03,02,40,11.90
2012,08,03,02,41,11.90
2012,08,03,02,42,11.90
2012,08,03,02,43,11.80
2012,08,03,02,44,11.80
2012,08,03,02,45,11.80
2012,08,03,02,46,11.80
2012,08,03,02,47,11.80
2012,08,03,02,48,11.80
2012,08,03,02,49,11.80
2012,08,03,02,50,11.80
2012,08,03,02,51,11.80
2012,08,03,02,52,11.80
2012,08,03,02,53,11.80
2012,08,03,02,54,11.80
2012,08,03,02,55,11.80
2012,08,03,02,56,11.80
2012,08,03,02,57,11.80
2012,08,03,02,58,11.80
2012,08,03,02,59,11.80
2012,08,03,03,00,11.80
2012,08,03,03,01,11.80
2012,08,03,03,02,11.80
2012,08,03,03,03,11.80
2012,08,03,03,04,11.80
2012,08,03,03,05,11.80
2012,08,03,03,06,11.80
2012,08,03,03,07,11.80
2012,08,03,03,08,11.80
2012,08,03,03,09,11.80
2012,08,03,03,10,11.80
2012,08,03,03,11,11.80
2012,08,03,03,12,11.80
2012,08,03,03,13,11.70
2012,08,03,03,14,11.70
2012,08,03,03,15,11.70
2012,08,03,03,16,11.70
2012,08,03,03,17,11.70
2012,08,03,03,18,11.70
2012,08,03,03,19,11.60
2012,08,03,03,20,11.60
2012,08,03,03,21,11.60
2012,08,03,03,22,11.60
2012,08,03,03,23,11.60
2012,08,03,03,24,11.60
2012,08,03,03,25,11.60
2012,08,03,03,26,11.60
2012,08,03,03,27,11.60
2012,08,03,03,28,11.60
2012,08,03,03,29,11.60
2012,08,03,03,30,11.60
2012,08,03,03,31,11.60
2012,08,03,03,32,11.60
2012,08,03,03,33,11.50
2012,08,03,03,34,11.40
2012,08,03,03,35,11.40
2012,08,03,03,36,11.40
2012,08,03,03,37,11.40
2012,08,03,03,38,11.40
2012,08,03,03,39,11.40
2012,08,03,03,40,11.40
2012,08,03,03,41,11.40
2012,08,03,03,42,11.40
2012,08,03,03,43,11.40
2012,08,03,03,44,11.40
2012,08,03,03,45,11.40
2012,08,03,03,46,11.40
2012,08,03,03,47,11.40
2012,08,03,03,48,11.40
2012,08,03,03,49,11.40
2012,08,03,03,50,11.40
2012,08,03,03,51,11.40
2012,08,03,03,52,11.40
2012,08,03,03,53,11.40
2012,08,03,03,54,11.40
2012,08,03,03,55,11.40
2012,08,03,03,56,11.40
2012,08,03,03,57,11.40
2012,08,03,03,58,11.40
2012,08,03,03,59,11.40
2012,08,03,04,00,11.40
2012,08,03,04,01,11.40
2012,08,03,04,02,11.40
2012,08,03,04,03,11.40
2012,08,03,04,04,11.40
2012,08,03,04,05,11.40
2012,08,03,04,06,11.40
2012,08,03,04,07,11.40
2012,08,03,04,08,11.40
2012,08,03,04,09,11.40
2012,08,03,04,10,11.40
2012,08,03,04,11,11.40
2012,08,03,04,12,11.40
2012,08,03,04,13,11.50
2012,08,03,04,14,11.60
2012,08,03,04,15,11.60
2012,08,03,04,16,11.60
2012,08,03,04,17,11.60
2012,08,03,04,18,11.60
2012,08,03,04,19,11.60
2012,08,03,04,20,11.60
2012,08,03,04,21,11.60
2012,08,03,04,22,11.60
2012,08,03,04,23,11.60
2012,08,03,04,24,11.60
2012,08,03,04,25,11.60
2012,08,03,04,26,11.60
2012,08,03,04,27,11.70
2012,08,03,04,28,11.70
2012,08,03,04,29,11.70
2012,08,03,04,30,11.70
2012,08,03,04,31,11.70
2012,08,03,04,32,11.70
2012,08,03,04,33,11.70
2012,08,03,04,34,11.70
2012,08,03,04,35,11.70
2012,08,03,04,36,11.70
2012,08,03,04,37,11.80
2012,08,03,04,38,11.80
2012,08,03,04,39,11.80
2012,08,03,04,40,11.80
2012,08,03,04,41,11.80
2012,08,03,04,42,11.80
2012,08,03,04,43,11.80
2012,08,03,04,44,11.80
2012,08,03,04,45,11.80
2012,08,03,04,46,11.80
2012,08,03,04,47,11.80
2012,08,03,04,48,11.80
2012,08,03,04,49,11.80
2012,08,03,04,50,11.80
2012,08,03,04,51,11.80
2012,08,03,04,52,11.80
2012,08,03,04,53,11.80
2012,08,03,04,54,11.80
2012,08,03,04,55,11.80
2012,08,03,04,56,11.80
2012,08,03,04,57,11.80
2012,08,03,04,58,11.90
2012,08,03,04,59,11.90
2012,08,03,05,00,11.90
2012,08,03,05,01,11.90
2012,08,03,05,02,11.90
2012,08,03,05,03,11.90
2012,08,03,05,04,11.90
2012,08,03,05,05,11.90
2012,08,03,05,06,11.90
2012,08,03,05,07,11.90
2012,08,03,05,08,11.90
2012,08,03,05,09,11.90
2012,08,03,05,10,11.90
2012,08,03,05,11,11.90
2012,08,03,05,12,11.90
2012,08,03,05,13,11.90
2012,08,03,05,14,11.90
2012,08,03,05,15,11.90
2012,08,03,05,16,11.90
2012,08,03,05,17,11.90
2012,08,03,05,18,11.90
2012,08,03,05,19,11.90
2012,08,03,05,20,11.90
2012,08,03,05,21,11.80
2012,08,03,05,22,11.80
2012,08,03,05,23,11.80
2012,08,03,05,24,11.80
2012,08,03,05,25,11.80
2012,08,03,05,26,11.80
2012,08,03,05,27,11.80
2012,08,03,05,28,11.80
2012,08,03,05,29,11.80
2012,08,03,05,30,11.80
2012,08,03,05,31,11.80
2012,08,03,05,32,11.80
2012,08,03,05,33,11.80
2012,08,03,05,34,11.80
2012,08,03,05,35,11.80
2012,08,03,05,36,11.80
2012,08,03,05,37,11.80
2012,08,03,05,38,11.80
2012,08,03,05,39,11.90
2012,08,03,05,40,11.90
2012,08,03,05,41,11.90
2012,08,03,05,42,11.90
2012,08,03,05,43,11.90
2012,08,03,05,44,11.90
2012,08,03,05,45,12.00
2012,08,03,05,46,12.00
2012,08,03,05,47,12.00
2012,08,03,05,48,12.00
2012,08,03,05,49,12.00
2012,08,03,05,50,12.00
2012,08,03,05,51,12.00
2012,08,03,05,52,12.00
2012,08,03,05,53,12.00
2012,08,03,05,54,12.00
2012,08,03,05,55,12.10
2012,08,03,05,56,12.10
2012,08,03,05,57,12.10
2012,08,03,05,58,12.10
2012,08,03,05,59,12.10
2012,08,03,06,00,12.10
2012,08,03,06,01,12.10
2012,08,03,06,02,12.10
2012,08,03,06,03,12.10
2012,08,03,06,04,12.20
2012,08,03,06,05,12.20
2012,08,03,06,06,12.20
2012,08,03,06,07,12.30
2012,08,03,06,08,12.30
2012,08,03,06,09,12.30
2012,08,03,06,10,12.30
2012,08,03,06,11,12.30
2012,08,03,06,12,12.30
2012,08,03,06,13,12.40
2012,08,03,06,14,12.40
2012,08,03,06,15,12.50
2012,08,03,06,16,12.50
2012,08,03,06,17,12.60
2012,08,03,06,18,12.80
2012,08,03,06,19,12.90
2012,08,03,06,20,13.10
2012,08,03,06,21,13.20
2012,08,03,06,22,13.30
2012,08,03,06,23,13.50
2012,08,03,06,24,13.60
2012,08,03,06,25,13.70
2012,08,03,06,26,13.80
2012,08,03,06,27,13.90
2012,08,03,06,28,14.00
2012,08,03,06,29,14.20
2012,08,03,06,30,14.20
2012,08,03,06,31,14.30
2012,08,03,06,32,14.40
2012,08,03,06,33,14.50
2012,08,03,06,34,14.50
2012,08,03,06,35,14.60
2012,08,03,06,36,14.70
2012,08,03,06,37,14.80
2012,08,03,06,38,14.80
2012,08,03,06,39,14.90
2012,08,03,06,40,15.00
2012,08,03,06,41,15.00
2012,08,03,06,42,15.10
2012,08,03,06,43,15.10
2012,08,03,06,44,15.20
2012,08,03,06,45,15.20
2012,08,03,06,46,15.20
2012,08,03,06,47,15.30
2012,08,03,06,48,15.30
2012,08,03,06,49,15.30
2012,08,03,06,50,15.30
2012,08,03,06,51,15.30
2012,08,03,06,52,15.40
2012,08,03,06,53,15.40
2012,08,03,06,54,15.40
2012,08,03,06,55,15.40
2012,08,03,06,56,15.40
2012,08,03,06,57,15.40
2012,08,03,06,58,15.40
2012,08,03,06,59,15.40
2012,08,03,07,00,15.30
2012,08,03,07,01,15.30
2012,08,03,07,02,15.30
2012,08,03,07,03,15.30
2012,08,03,07,04,15.30
2012,08,03,07,05,15.30
2012,08,03,07,06,15.30
2012,08,03,07,07,15.30
2012,08,03,07,08,15.30
2012,08,03,07,09,15.30
2012,08,03,07,10,15.30
2012,08,03,07,11,15.30
2012,08,03,07,12,15.30
2012,08,03,07,13,15.30
2012,08,03,07,14,15.30
2012,08,03,07,15,15.30
2012,08,03,07,16,15.40
2012,08,03,07,17,15.40
2012,08,03,07,18,15.50
2012,08,03,07,19,15.50
2012,08,03,07,20,15.50
2012,08,03,07,21,15.50
2012,08,03,07,22,15.50
2012,08,03,07,23,15.60
2012,08,03,07,24,15.60
2012,08,03,07,25,15.50
2012,08,03,07,26,15.50
2012,08,03,07,27,15.40
2012,08,03,07,28,15.40
2012,08,03,07,29,15.40
2012,08,03,07,30,15.40
2012,08,03,07,31,15.50
2012,08,03,07,32,15.50
2012,08,03,07,33,15.50
2012,08,03,07,34,15.50
2012,08,03,07,35,15.50
2012,08,03,07,36,15.50
2012,08,03,07,37,15.40
2012,08,03,07,38,15.40
2012,08,03,07,39,15.40
2012,08,03,07,40,15.40
2012,08,03,07,41,15.40
2012,08,03,07,42,15.50
2012,08,03,07,43,15.50
2012,08,03,07,44,15.60
2012,08,03,07,45,15.70
2012,08,03,07,46,15.80
2012,08,03,07,47,15.80
2012,08,03,07,48,15.90
2012,08,03,07,49,16.00
2012,08,03,07,50,16.10
2012,08,03,07,51,16.10
2012,08,03,07,52,16.20
2012,08,03,07,53,16.30
2012,08,03,07,54,16.30
2012,08,03,07,55,16.40
2012,08,03,07,56,16.40
2012,08,03,07,57,16.40
2012,08,03,07,58,16.60
2012,08,03,07,59,16.60
2012,08,03,08,00,16.70
2012,08,03,08,01,16.70
2012,08,03,08,02,16.70
2012,08,03,08,03,16.80
2012,08,03,08,04,16.80
2012,08,03,08,05,16.80
2012,08,03,08,06,16.90
2012,08,03,08,07,16.90
2012,08,03,08,08,17.00
2012,08,03,08,09,17.00
2012,08,03,08,10,17.10
2012,08,03,08,11,17.20
2012,08,03,08,12,17.20
2012,08,03,08,13,17.20
2012,08,03,08,14,17.30
2012,08,03,08,15,17.30
2012,08,03,08,16,17.30
2012,08,03,08,17,17.30
2012,08,03,08,18,17.30
2012,08,03,08,19,17.30
2012,08,03,08,20,17.40
2012,08,03,08,21,17.40
2012,08,03,08,22,17.40
2012,08,03,08,23,17.40
2012,08,03,08,24,17.50
2012,08,03,08,25,17.50
2012,08,03,08,26,17.50
2012,08,03,08,27,17.50
2012,08,03,08,28,17.60
2012,08,03,08,29,17.60
2012,08,03,08,30,17.60
2012,08,03,08,31,17.60
2012,08,03,08,32,17.60
2012,08,03,08,33,17.70
2012,08,03,08,34,17.70
2012,08,03,08,35,17.70
2012,08,03,08,36,17.70
2012,08,03,08,37,17.70
2012,08,03,08,38,17.80
2012,08,03,08,39,17.80
2012,08,03,08,40,17.80
2012,08,03,08,41,17.80
2012,08,03,08,42,17.80
2012,08,03,08,43,17.90
2012,08,03,08,44,17.90
2012,08,03,08,45,17.90
2012,08,03,08,46,17.90
2012,08,03,08,47,17.90
2012,08,03,08,48,17.90
2012,08,03,08,49,17.90
2012,08,03,08,50,17.90
2012,08,03,08,51,17.90
2012,08,03,08,52,17.90
2012,08,03,08,53,17.90
2012,08,03,08,54,17.90
2012,08,03,08,55,17.90
2012,08,03,08,56,17.90
2012,08,03,08,57,17.90
2012,08,03,08,58,17.90
2012,08,03,08,59,17.90
2012,08,03,09,00,17.90
2012,08,03,09,01,17.90
2012,08,03,09,02,17.90
2012,08,03,09,03,17.90
2012,08,03,09,04,17.90
2012,08,03,09,05,17.90
2012,08,03,09,06,17.80
2012,08,03,09,07,17.80
2012,08,03,09,08,17.80
2012,08,03,09,09,17.80
2012,08,03,09,10,17.80
2012,08,03,09,11,17.90
2012,08,03,09,12,17.90
2012,08,03,09,13,17.90
2012,08,03,09,14,17.90
2012,08,03,09,15,18.00
2012,08,03,09,16,18.10
2012,08,03,09,17,18.20
2012,08,03,09,18,18.20
2012,08,03,09,19,18.20
2012,08,03,09,20,18.20
2012,08,03,09,21,18.20
2012,08,03,09,22,18.10
2012,08,03,09,23,18.00
2012,08,03,09,24,17.90
2012,08,03,09,25,17.90
2012,08,03,09,26,17.90
2012,08,03,09,27,17.90
2012,08,03,09,28,17.90
2012,08,03,09,29,18.00
2012,08,03,09,30,18.10
2012,08,03,09,31,18.10
2012,08,03,09,32,18.20
2012,08,03,09,33,18.20
2012,08,03,09,34,18.20
2012,08,03,09,35,18.20
2012,08,03,09,36,18.20
2012,08,03,09,37,18.30
2012,08,03,09,38,18.30
2012,08,03,09,39,18.30
2012,08,03,09,40,18.40
2012,08,03,09,41,18.50
2012,08,03,09,42,18.50
2012,08,03,09,43,18.60
2012,08,03,09,44,18.60
2012,08,03,09,45,18.70
2012,08,03,09,46,18.70
2012,08,03,09,47,18.70
2012,08,03,09,48,18.70
2012,08,03,09,49,18.60
2012,08,03,09,50,18.60
2012,08,03,09,51,18.60
2012,08,03,09,52,18.70
2012,08,03,09,53,18.70
2012,08,03,09,54,18.80
2012,08,03,09,55,18.90
2012,08,03,09,56,18.90
2012,08,03,09,57,18.90
2012,08,03,09,58,18.90
2012,08,03,09,59,18.90
2012,08,03,10,00,18.90
2012,08,03,10,01,18.90
2012,08,03,10,02,18.90
2012,08,03,10,03,19.00
2012,08,03,10,04,19.10
2012,08,03,10,05,19.10
2012,08,03,10,06,19.10
2012,08,03,10,07,19.10
2012,08,03,10,08,19.10
2012,08,03,10,09,19.10
2012,08,03,10,10,19.00
2012,08,03,10,11,19.10
2012,08,03,10,12,19.10
2012,08,03,10,13,19.10
2012,08,03,10,14,19.00
2012,08,03,10,15,19.00
2012,08,03,10,16,19.10
2012,08,03,10,17,19.10
2012,08,03,10,18,19.10
2012,08,03,10,19,19.20
2012,08,03,10,20,19.20
2012,08,03,10,21,19.20
2012,08,03,10,22,19.20
2012,08,03,10,23,19.20
2012,08,03,10,24,19.10
2012,08,03,10,25,19.00
2012,08,03,10,26,18.90
2012,08,03,10,27,18.90
2012,08,03,10,28,18.90
2012,08,03,10,29,18.90
2012,08,03,10,30,19.00
2012,08,03,10,31,19.10
2012,08,03,10,32,19.10
2012,08,03,10,33,19.10
2012,08,03,10,34,19.20
2012,08,03,10,35,19.30
2012,08,03,10,36,19.30
2012,08,03,10,37,19.40
2012,08,03,10,38,19.40
2012,08,03,10,39,19.40
2012,08,03,10,40,19.40
2012,08,03,10,41,19.30
2012,08,03,10,42,19.30
2012,08,03,10,43,19.30
2012,08,03,10,44,19.30
2012,08,03,10,45,19.30
2012,08,03,10,46,19.40
2012,08,03,10,47,19.50
2012,08,03,10,48,19.50
2012,08,03,10,49,19.50
2012,08,03,10,50,19.50
2012,08,03,10,51,19.60
2012,08,03,10,52,19.60
2012,08,03,10,53,19.60
2012,08,03,10,54,19.50
2012,08,03,10,55,19.40
2012,08,03,10,56,19.40
2012,08,03,10,57,19.50
2012,08,03,10,58,19.40
2012,08,03,10,59,19.40
2012,08,03,11,00,19.40
2012,08,03,11,01,19.40
2012,08,03,11,02,19.40
2012,08,03,11,03,19.40
2012,08,03,11,04,19.50
2012,08,03,11,05,19.60
2012,08,03,11,06,19.60
2012,08,03,11,07,19.50
2012,08,03,11,08,19.40
2012,08,03,11,09,19.40
2012,08,03,11,10,19.30
2012,08,03,11,11,19.30
2012,08,03,11,12,19.40
2012,08,03,11,13,19.40
2012,08,03,11,14,19.40
2012,08,03,11,15,19.50
2012,08,03,11,16,19.40
2012,08,03,11,17,19.40
2012,08,03,11,18,19.40
2012,08,03,11,19,19.40
2012,08,03,11,20,19.40
2012,08,03,11,21,19.40
2012,08,03,11,22,19.40
2012,08,03,11,23,19.40
2012,08,03,11,24,19.40
2012,08,03,11,25,19.40
2012,08,03,11,26,19.50
2012,08,03,11,27,19.50
2012,08,03,11,28,19.50
2012,08,03,11,29,19.50
2012,08,03,11,30,19.50
2012,08,03,11,31,19.50
2012,08,03,11,32,19.50
2012,08,03,11,33,19.50
2012,08,03,11,34,19.60
2012,08,03,11,35,19.60
2012,08,03,11,36,19.60
2012,08,03,11,37,19.60
2012,08,03,11,38,19.50
2012,08,03,11,39,19.50
2012,08,03,11,40,19.60
2012,08,03,11,41,19.60
2012,08,03,11,42,19.60
2012,08,03,11,43,19.70
2012,08,03,11,44,19.70
2012,08,03,11,45,19.70
2012,08,03,11,46,19.80
2012,08,03,11,47,19.80
2012,08,03,11,48,19.90
2012,08,03,11,49,19.90
2012,08,03,11,50,19.90
2012,08,03,11,51,19.90
2012,08,03,11,52,19.90
2012,08,03,11,53,19.80
2012,08,03,11,54,19.70
2012,08,03,11,55,19.70
2012,08,03,11,56,19.80
2012,08,03,11,57,19.70
2012,08,03,11,58,19.70
2012,08,03,11,59,19.70
2012,08,03,12,00,19.60
2012,08,03,12,01,19.60
2012,08,03,12,02,19.60
2012,08,03,12,03,19.60
2012,08,03,12,04,19.60
2012,08,03,12,05,19.60
2012,08,03,12,06,19.70
2012,08,03,12,07,19.60
2012,08,03,12,08,19.70
2012,08,03,12,09,19.80
2012,08,03,12,10,19.80
2012,08,03,12,11,19.80
2012,08,03,12,12,19.80
2012,08,03,12,13,19.80
2012,08,03,12,14,19.80
2012,08,03,12,15,19.80
2012,08,03,12,16,19.80
2012,08,03,12,17,19.80
2012,08,03,12,18,19.80
2012,08,03,12,19,19.70
2012,08,03,12,20,19.60
2012,08,03,12,21,19.60
2012,08,03,12,22,19.60
2012,08,03,12,23,19.60
2012,08,03,12,24,19.70
2012,08,03,12,25,19.80
2012,08,03,12,26,19.90
2012,08,03,12,27,19.90
2012,08,03,12,28,19.90
2012,08,03,12,29,19.90
2012,08,03,12,30,20.00
2012,08,03,12,31,20.10
2012,08,03,12,32,20.20
2012,08,03,12,33,20.20
2012,08,03,12,34,20.30
2012,08,03,12,35,20.40
2012,08,03,12,36,20.40
2012,08,03,12,37,20.40
2012,08,03,12,38,20.50
2012,08,03,12,39,20.50
2012,08,03,12,40,20.50
2012,08,03,12,41,20.50
2012,08,03,12,42,20.50
2012,08,03,12,43,20.50
2012,08,03,12,44,20.50
2012,08,03,12,45,20.50
2012,08,03,12,46,20.50
2012,08,03,12,47,20.50
2012,08,03,12,48,20.60
2012,08,03,12,49,20.60
2012,08,03,12,50,20.50
2012,08,03,12,51,20.40
2012,08,03,12,52,20.40
2012,08,03,12,53,20.40
2012,08,03,12,54,20.50
2012,08,03,12,55,20.50
2012,08,03,12,56,20.50
2012,08,03,12,57,20.50
2012,08,03,12,58,20.50
2012,08,03,12,59,20.50
2012,08,03,13,00,20.50
2012,08,03,13,01,20.50
2012,08,03,13,02,20.50
2012,08,03,13,03,20.50
2012,08,03,13,04,20.50
2012,08,03,13,05,20.60
2012,08,03,13,06,20.70
2012,08,03,13,07,20.80
2012,08,03,13,08,20.90
2012,08,03,13,09,21.00
2012,08,03,13,10,21.10
2012,08,03,13,11,21.10
2012,08,03,13,12,21.10
2012,08,03,13,13,21.10
2012,08,03,13,14,21.10
2012,08,03,13,15,21.00
2012,08,03,13,16,21.00
2012,08,03,13,17,21.00
2012,08,03,13,18,20.90
2012,08,03,13,19,20.80
2012,08,03,13,20,20.80
2012,08,03,13,21,20.80
2012,08,03,13,22,20.80
2012,08,03,13,23,20.80
2012,08,03,13,24,20.80
2012,08,03,13,25,20.90
2012,08,03,13,26,20.90
2012,08,03,13,27,20.90
2012,08,03,13,28,20.90
2012,08,03,13,29,21.00
2012,08,03,13,30,21.00
2012,08,03,13,31,21.00
2012,08,03,13,32,21.10
2012,08,03,13,33,21.20
2012,08,03,13,34,21.30
2012,08,03,13,35,21.40
2012,08,03,13,36,21.40
2012,08,03,13,37,21.50
2012,08,03,13,38,21.60
2012,08,03,13,39,21.50
2012,08,03,13,40,21.40
2012,08,03,13,41,21.30
2012,08,03,13,42,21.20
2012,08,03,13,43,21.20
2012,08,03,13,44,21.10
2012,08,03,13,45,21.10
2012,08,03,13,46,21.10
2012,08,03,13,47,21.10
2012,08,03,13,48,21.10
2012,08,03,13,49,21.10
2012,08,03,13,50,21.10
2012,08,03,13,51,21.10
2012,08,03,13,52,21.10
2012,08,03,13,53,21.20
2012,08,03,13,54,21.30
2012,08,03,13,55,21.30
2012,08,03,13,56,21.30
2012,08,03,13,57,21.30
2012,08,03,13,58,21.40
2012,08,03,13,59,21.50
2012,08,03,14,00,21.60
2012,08,03,14,01,21.60
2012,08,03,14,02,21.70
2012,08,03,14,03,21.70
2012,08,03,14,04,21.70
2012,08,03,14,05,21.70
2012,08,03,14,06,21.70
2012,08,03,14,07,21.60
2012,08,03,14,08,21.60
2012,08,03,14,09,21.60
2012,08,03,14,10,21.60
2012,08,03,14,11,21.60
2012,08,03,14,12,21.60
2012,08,03,14,13,21.60
2012,08,03,14,14,21.70
2012,08,03,14,15,21.70
2012,08,03,14,16,21.70
2012,08,03,14,17,21.70
2012,08,03,14,18,21.80
2012,08,03,14,19,21.90
2012,08,03,14,20,21.90
2012,08,03,14,21,21.90
2012,08,03,14,22,22.00
2012,08,03,14,23,22.00
2012,08,03,14,24,22.00
2012,08,03,14,25,22.10
2012,08,03,14,26,22.10
2012,08,03,14,27,22.10
2012,08,03,14,28,22.10
2012,08,03,14,29,22.10
2012,08,03,14,30,22.10
2012,08,03,14,31,22.20
2012,08,03,14,32,22.20
2012,08,03,14,33,22.30
2012,08,03,14,34,22.40
2012,08,03,14,35,22.50
2012,08,03,14,36,22.60
2012,08,03,14,37,22.70
2012,08,03,14,38,22.80
2012,08,03,14,39,22.70
2012,08,03,14,40,22.70
2012,08,03,14,41,22.60
2012,08,03,14,42,22.60
2012,08,03,14,43,22.50
2012,08,03,14,44,22.50
2012,08,03,14,45,22.50
2012,08,03,14,46,22.50
2012,08,03,14,47,22.40
2012,08,03,14,48,22.40
2012,08,03,14,49,22.40
2012,08,03,14,50,22.40
2012,08,03,14,51,22.40
2012,08,03,14,52,22.40
2012,08,03,14,53,22.40
2012,08,03,14,54,22.50
2012,08,03,14,55,22.50
2012,08,03,14,56,22.50
2012,08,03,14,57,22.50
2012,08,03,14,58,22.60
2012,08,03,14,59,22.70
2012,08,03,15,00,22.70
2012,08,03,15,01,22.80
2012,08,03,15,02,22.90
2012,08,03,15,03,23.00
2012,08,03,15,04,23.10
2012,08,03,15,05,23.10
2012,08,03,15,06,23.10
2012,08,03,15,07,23.10
2012,08,03,15,08,23.20
2012,08,03,15,09,23.30
2012,08,03,15,10,23.30
2012,08,03,15,11,23.30
2012,08,03,15,12,23.30
2012,08,03,15,13,23.30
2012,08,03,15,14,23.30
2012,08,03,15,15,23.30
2012,08,03,15,16,23.30
2012,08,03,15,17,23.30
2012,08,03,15,18,23.30
2012,08,03,15,19,23.40
2012,08,03,15,20,23.40
2012,08,03,15,21,23.60
2012,08,03,15,22,23.70
2012,08,03,15,23,23.70
2012,08,03,15,24,23.70
2012,08,03,15,25,23.70
2012,08,03,15,26,23.70
2012,08,03,15,27,23.70
2012,08,03,15,28,23.70
2012,08,03,15,29,23.70
2012,08,03,15,30,23.60
2012,08,03,15,31,23.60
2012,08,03,15,32,23.70
2012,08,03,15,33,23.70
2012,08,03,15,34,23.60
2012,08,03,15,35,23.60
2012,08,03,15,36,23.50
2012,08,03,15,37,23.40
2012,08,03,15,38,23.40
2012,08,03,15,39,23.40
2012,08,03,15,40,23.30
2012,08,03,15,41,23.30
2012,08,03,15,42,23.30
2012,08,03,15,43,23.40
2012,08,03,15,44,23.40
2012,08,03,15,45,23.50
2012,08,03,15,46,23.60
2012,08,03,15,47,23.60
2012,08,03,15,48,23.70
2012,08,03,15,49,23.70
2012,08,03,15,50,23.70
2012,08,03,15,51,23.70
2012,08,03,15,52,23.70
2012,08,03,15,53,23.70
2012,08,03,15,54,23.70
2012,08,03,15,55,23.70
2012,08,03,15,56,23.70
2012,08,03,15,57,23.70
2012,08,03,15,58,23.80
2012,08,03,15,59,23.80
2012,08,03,16,00,23.80
2012,08,03,16,01,23.70
2012,08,03,16,02,23.70
2012,08,03,16,03,23.60
2012,08,03,16,04,23.70
2012,08,03,16,05,23.70
2012,08,03,16,06,23.70
2012,08,03,16,07,23.70
2012,08,03,16,08,23.70
2012,08,03,16,09,23.80
2012,08,03,16,10,23.80
2012,08,03,16,11,23.80
2012,08,03,16,12,23.80
2012,08,03,16,13,23.80
2012,08,03,16,14,23.90
2012,08,03,16,15,24.00
2012,08,03,16,16,24.10
2012,08,03,16,17,24.10
2012,08,03,16,18,24.20
2012,08,03,16,19,24.30
2012,08,03,16,20,24.30
2012,08,03,16,21,24.30
2012,08,03,16,22,24.30
2012,08,03,16,23,24.30
2012,08,03,16,24,24.30
2012,08,03,16,25,24.40
2012,08,03,16,26,24.40
2012,08,03,16,27,24.40
2012,08,03,16,28,24.50
2012,08,03,16,29,24.50
2012,08,03,16,30,24.50
2012,08,03,16,31,24.50
2012,08,03,16,32,24.60
2012,08,03,16,33,24.60
2012,08,03,16,34,24.70
2012,08,03,16,35,24.80
2012,08,03,16,36,24.90
2012,08,03,16,37,25.00
2012,08,03,16,38,25.10
2012,08,03,16,39,25.10
2012,08,03,16,40,25.10
2012,08,03,16,41,24.90
2012,08,03,16,42,24.80
2012,08,03,16,43,24.80
2012,08,03,16,44,24.80
2012,08,03,16,45,24.80
2012,08,03,16,46,24.80
2012,08,03,16,47,24.70
2012,08,03,16,48,24.70
2012,08,03,16,49,24.50
2012,08,03,16,50,24.40
2012,08,03,16,51,24.40
2012,08,03,16,52,24.40
2012,08,03,16,53,24.30
2012,08,03,16,54,24.20
2012,08,03,16,55,24.20
2012,08,03,16,56,24.10
2012,08,03,16,57,24.10
2012,08,03,16,58,23.90
2012,08,03,16,59,23.90
2012,08,03,17,00,24.00
2012,08,03,17,01,24.10
2012,08,03,17,02,24.20
2012,08,03,17,03,24.30
2012,08,03,17,04,24.30
2012,08,03,17,05,24.30
2012,08,03,17,06,24.30
2012,08,03,17,07,24.10
2012,08,03,17,08,24.10
2012,08,03,17,09,24.00
2012,08,03,17,10,23.90
2012,08,03,17,11,23.90
2012,08,03,17,12,23.90
2012,08,03,17,13,23.90
2012,08,03,17,14,23.90
2012,08,03,17,15,23.80
2012,08,03,17,16,23.80
2012,08,03,17,17,23.80
2012,08,03,17,18,23.80
2012,08,03,17,19,23.80